Date String (YYYY-MM-DD hh:mm:ss) UTC,Instrument flags,absolute air pressure of the measurement (hPa),sample flow rate (lpm),inlet stack bypass flow (lpm),air temperature of the measurement (°C),ambient temperature measured by the external sensor (°C),aerosol sample conditioner tube jacket temperature (°C),OPC LED temperature (°C),internal box temperature (°C),relative humidity of the measurement (%),span deviation,mass concentration of particles derived from Lorenz-Mie calculation of OPC scattering (μg/m³),mass concentration of particles derived from Lorenz-Mie calculation of OPC scattering (μg/m³),mass concentration of particles derived from Lorenz-Mie calculation of OPC scattering (μg/m³)
DateTimeUTC,F1_M11,P_M11,Q1_M11,Q2_M11,T1_M11,T2_M11,T3_M11,T4_M11,T5_M11,U1_M11,ZSPAN_M11,X0_M11,X2_M11,X1_M11
2024-06-15 19:00:00,SystemResetWarning,0825.3,5.00,000.00,028.9,028.3,000.0,037.1,030.8,020.2,0000.0,0017.97,0006.01,0004.93
2024-06-15 19:01:00,SystemResetWarning,0825.3,5.00,000.00,029.0,028.5,000.0,037.1,030.9,020.0,0000.0,0017.88,0006.04,0004.92
2024-06-15 19:02:00,SystemResetWarning,0825.2,5.00,000.00,029.1,028.7,000.0,037.1,031.0,020.9,0000.0,0017.71,0006.06,0004.92
2024-06-15 19:03:00,SystemResetWarning,0825.3,5.01,000.00,029.2,028.8,000.0,037.2,031.1,020.5,0000.0,0018.62,0006.10,0004.93
2024-06-15 19:04:00,SystemResetWarning,0825.3,4.98,000.00,029.2,027.9,000.0,037.3,030.6,020.6,0000.0,0016.95,0006.16,0004.93
2024-06-15 19:05:00,SystemResetWarning,0825.2,5.01,000.00,028.8,025.9,000.0,037.3,029.6,021.0,0000.0,0016.58,0006.13,0004.93
2024-06-15 19:06:00,SystemResetWarning,0825.3,5.02,000.00,028.6,025.8,000.0,037.3,029.5,021.6,0000.0,0018.22,0006.17,0004.94
2024-06-15 19:07:00,SystemResetWarning,0825.2,4.99,000.00,028.6,026.4,000.0,037.2,029.8,022.0,0000.0,0018.55,0006.18,0004.94
2024-06-15 19:08:00,SystemResetWarning,0825.2,5.00,000.00,028.6,026.8,000.0,037.1,030.0,021.9,0000.0,0018.64,0006.19,0004.95
2024-06-15 19:09:00,SystemResetWarning,0825.3,5.00,000.00,028.7,027.2,000.0,037.1,030.3,021.7,0000.0,0018.24,0006.16,0004.96
2024-06-15 19:10:00,SystemResetWarning,0825.2,5.00,000.00,028.7,027.6,000.0,037.0,030.4,021.4,0000.0,0019.42,0006.17,0004.95
2024-06-15 19:11:00,SystemResetWarning,0825.2,5.00,000.00,028.8,027.9,000.0,037.0,030.6,020.6,0000.0,0020.55,0006.19,0004.98
2024-06-15 19:12:00,SystemResetWarning,0825.2,5.01,000.00,028.9,028.1,000.0,037.0,030.7,020.5,0000.0,0020.69,0006.18,0005.00
2024-06-15 19:13:00,SystemResetWarning,0825.2,5.00,000.00,029.0,028.4,000.0,037.1,030.9,019.8,0000.0,0020.84,0006.22,0005.02
2024-06-15 19:14:00,SystemResetWarning,0825.3,5.00,000.00,029.1,028.6,000.0,037.1,031.0,020.0,0000.0,0020.26,0006.21,0005.02
2024-06-15 19:15:00,SystemResetWarning,0825.3,5.00,000.00,029.2,028.7,000.0,037.1,031.1,020.3,0000.0,0020.91,0006.13,0005.02
2024-06-15 19:16:00,SystemResetWarning,0825.2,5.00,000.00,029.3,028.8,000.0,037.2,031.1,020.7,0000.0,0020.18,0006.17,0005.01
2024-06-15 19:17:00,SystemResetWarning,0825.1,4.98,000.00,029.2,027.4,000.0,037.3,030.4,019.5,0000.0,0018.63,0006.13,0004.98
2024-06-15 19:18:00,SystemResetWarning,0825.1,5.01,000.00,028.8,025.7,000.0,037.3,029.6,020.1,0000.0,0018.73,0006.06,0004.96
2024-06-15 19:19:00,SystemResetWarning,0825.1,5.01,000.00,028.6,026.0,000.0,037.3,029.7,020.5,0000.5,0019.77,0006.09,0004.95
2024-06-15 19:20:00,SystemResetWarning,0825.1,5.00,000.00,028.6,026.5,000.0,037.2,029.9,020.5,0000.0,0020.89,0006.13,0004.96
2024-06-15 19:21:00,SystemResetWarning,0825.1,5.00,000.00,028.7,026.9,000.0,037.1,030.1,019.6,0000.0,0020.88,0006.12,0004.96
2024-06-15 19:22:00,SystemResetWarning,0825.1,5.00,000.00,028.7,027.3,000.0,037.1,030.4,019.7,0000.0,0019.58,0006.05,0004.94
2024-06-15 19:23:00,SystemResetWarning,0825.0,5.01,000.00,028.8,027.7,000.0,037.1,030.5,019.7,0000.0,0018.92,0006.00,0004.91
2024-06-15 19:24:00,SystemResetWarning,0825.1,5.00,000.00,028.9,028.0,000.0,037.1,030.7,020.5,0000.0,0019.46,0005.94,0004.89
2024-06-15 19:25:00,SystemResetWarning,0825.1,5.00,000.00,029.0,028.2,000.0,037.1,030.8,019.2,0000.0,0020.45,0005.94,0004.89
2024-06-15 19:26:00,SystemResetWarning,0825.0,5.00,000.00,029.1,028.5,000.0,037.1,030.9,019.4,0000.0,0020.27,0005.96,0004.90
2024-06-15 19:27:00,SystemResetWarning,0824.9,5.00,000.00,029.2,028.7,000.0,037.2,031.1,019.0,0000.0,0020.51,0005.95,0004.90
2024-06-15 19:28:00,SystemResetWarning,0824.9,5.00,000.00,029.3,028.8,000.0,037.2,031.1,018.9,0000.0,0020.63,0005.96,0004.91
2024-06-15 19:29:00,SystemResetWarning,0824.9,4.98,000.00,029.2,028.0,000.0,037.3,030.7,019.3,0000.0,0020.01,0005.98,0004.92
2024-06-15 19:30:00,SystemResetWarning,0824.8,5.00,000.00,028.9,025.9,000.0,037.3,029.7,019.3,0000.0,0019.88,0005.96,0004.91
2024-06-15 19:31:00,SystemResetWarning,0824.8,5.01,000.00,028.6,025.8,000.0,037.3,029.5,019.2,0000.0,0019.04,0005.95,0004.92
2024-06-15 19:32:00,SystemResetWarning,0824.7,4.99,000.00,028.6,026.3,000.0,037.2,029.8,019.9,0000.0,0017.40,0005.94,0004.92
2024-06-15 19:33:00,SystemResetWarning,0824.7,5.00,000.00,028.6,026.7,000.0,037.1,030.0,019.6,0000.0,0017.69,0005.97,0004.94
2024-06-15 19:34:00,SystemResetWarning,0824.7,5.01,000.00,028.7,027.1,000.0,037.1,030.2,019.2,0000.0,0018.00,0006.02,0004.95
2024-06-15 19:35:00,SystemResetWarning,0824.8,5.01,000.00,028.8,027.5,000.0,037.0,030.4,020.8,0000.0,0018.21,0006.04,0004.96
2024-06-15 19:36:00,SystemResetWarning,0824.8,4.99,000.00,028.8,027.9,000.0,037.0,030.6,020.7,0000.0,0017.21,0006.05,0004.95
2024-06-15 19:37:00,SystemResetWarning,0824.8,5.00,000.00,028.9,028.1,000.0,037.1,030.7,020.2,0000.0,0018.42,0006.11,0004.96
2024-06-15 19:38:00,SystemResetWarning,0824.8,5.00,000.00,029.0,028.4,000.0,037.1,030.9,020.9,0000.0,0018.33,0006.21,0004.96
2024-06-15 19:39:00,SystemResetWarning,0824.9,4.99,000.00,029.1,028.6,000.0,037.1,031.0,019.4,0000.0,0018.89,0006.25,0004.97
2024-06-15 19:40:00,SystemResetWarning,0824.8,5.00,000.00,029.2,028.7,000.0,037.2,031.1,019.2,0000.0,0019.59,0006.27,0004.98
2024-06-15 19:41:00,SystemResetWarning,0824.7,4.99,000.00,029.3,028.4,000.0,037.2,030.9,019.4,0000.0,0020.06,0006.25,0005.00
2024-06-15 19:42:00,SystemResetWarning,0824.7,5.01,000.00,029.0,026.4,000.0,037.3,030.0,019.8,0000.0,0020.56,0006.25,0005.01
2024-06-15 19:43:00,SystemResetWarning,0824.7,5.01,000.00,028.7,025.7,000.0,037.3,029.6,020.1,0000.0,0021.89,0006.30,0005.02
2024-06-15 19:44:00,SystemResetWarning,0824.7,5.00,000.00,028.6,026.2,000.0,037.2,029.8,019.9,0000.0,0022.70,0006.39,0005.03
2024-06-15 19:45:00,SystemResetWarning,0824.7,5.00,000.00,028.6,026.6,000.0,037.2,030.0,019.4,0000.0,0022.52,0006.43,0005.04
2024-06-15 19:46:00,SystemResetWarning,0824.6,5.00,000.00,028.7,027.0,000.0,037.1,030.2,019.7,0004.8,0022.06,0006.44,0005.07
2024-06-15 19:47:00,SystemResetWarning,0824.6,5.00,000.00,028.7,027.4,000.0,037.1,030.4,019.9,0004.8,0021.71,0006.44,0005.11
2024-06-15 19:48:00,SystemResetWarning,0824.5,4.99,000.00,028.8,027.8,000.0,037.0,030.6,018.7,0004.9,0019.78,0006.39,0005.13
2024-06-15 19:49:00,SystemResetWarning,0824.5,5.00,000.00,028.9,028.1,000.0,037.1,030.7,019.2,0004.9,0019.39,0006.39,0005.15
2024-06-15 19:50:00,SystemResetWarning,0824.5,5.00,000.00,029.0,028.3,000.0,037.1,030.8,018.8,0004.9,0018.42,0006.35,0005.17
2024-06-15 19:51:00,SystemResetWarning,0824.5,4.99,000.00,029.1,028.5,000.0,037.1,030.9,018.6,0005.0,0017.79,0006.43,0005.22
2024-06-15 19:52:00,SystemResetWarning,0824.5,4.99,000.00,029.2,028.7,000.0,037.1,031.0,018.0,0004.8,0017.33,0006.47,0005.25
2024-06-15 19:53:00,SystemResetWarning,0824.4,4.99,000.00,029.3,028.8,000.0,037.2,031.1,018.4,0004.8,0016.35,0006.52,0005.28
2024-06-15 19:54:00,SystemResetWarning,0824.4,4.99,000.00,029.3,028.1,000.0,037.3,030.7,017.8,0004.7,0015.32,0006.55,0005.31
2024-06-15 19:55:00,SystemResetWarning,0824.4,5.00,000.00,028.9,026.0,000.0,037.3,029.7,018.8,0004.9,0014.06,0006.53,0005.33
2024-06-15 19:56:00,SystemResetWarning,0824.3,5.02,000.00,028.7,025.7,000.0,037.3,029.5,019.0,0004.7,0014.29,0006.50,0005.36
2024-06-15 19:57:00,SystemResetWarning,0824.3,4.99,000.00,028.6,026.3,000.0,037.3,029.8,019.0,0004.5,0015.19,0006.56,0005.39
2024-06-15 19:58:00,SystemResetWarning,0824.3,5.00,000.00,028.6,026.7,000.0,037.2,030.0,018.6,0004.3,0015.60,0006.64,0005.40
2024-06-15 19:59:00,SystemResetWarning,0824.4,5.01,000.00,028.7,027.1,000.0,037.1,030.3,018.6,0003.9,0015.46,0006.69,0005.43
